Terminal Aerodrome Forecast
Issued by NWS Detroit/Pontiac, MI

Home | Current Version | Previous Version | Text Only | Print | Product List | Glossary On
Versions: 1 2 3 4 5 6 7 8 9 10 11 12 13 14 15 16 17 18 19 20 21 22 23 24 25 26 27 28 29 30 31 32 33 34 35 36
000
FTUS43 KDTX 042320
TAFDTW
TAF
KDTW 042320Z 0500/0606 VRB03KT P6SM SCT040 BKN250
     FM050800 VRB02KT 4SM BR BKN035
     FM051400 21006KT P6SM SCT040 BKN150
     FM051900 22008KT P6SM BKN040 BKN200
     FM060000 VRB04KT P6SM SCT050 BKN200=

USA.gov is the U.S. government's official web portal to all federal, state and local government web resources and services.